Tracking 20083 objects as of 10-Dec-2019
HD Live streaming from Space Station
objects crossing your sky now

PSLV DEB

Track PSLV DEB now!
10-day predictions


NORAD ID: 35339
Int'l Code: 2001-049PX
Perigee: 645.8 km
Apogee: 911.0 km
Inclination: 98.1 °
Period: 100.3 minutes
Semi major axis: 7149 km
RCS: 0.0072 m2 (small)
Launch date: October 22, 2001
Source: India (IND)
Launch site: SRIHARIKOTA (SRI)

Note: This is SATELLITE DEBRIS
aabbcc
Your satellite tracking list
Your tracking list is empty




NASA's NSSDC Master Catalog

Two Line Element Set (TLE):
1 35339U 01049PX  19343.72439550  .00000401  00000-0  12573-3 0  9998
2 35339  98.1466 148.2896 0185469 144.9818 216.3731 14.36138194896360
Source of the keplerian elements: AFSPC